Location: Ulm
(48.3980°N, 9.9777°E)
Time: 06:09:28
(UTC+01:00)

ISS - Pass Details

Date: 15 November 2017
Orbit: 402 x 407 km, 51.6° (Epoch: 19 November)

Event Time Altitude Azimuth Distance (km) Brightness Sun altitude
Exits shadow 06:28:09 13° 262° (W) 1,297 -1.8 -10.0°
Maximum altitude 06:30:04 20° 220° (SW) 1,000 -2.1 -9.7°
Drops below altitude 10° 06:32:31 10° 171° (S) 1,448 -0.7 -9.3°
Sets 06:34:56 0° 154° (SSE) 2,303 0.7 -8.9°
